Location: Noordwijk
(52.2400°N, 4.4500°E)
Time: 02:57:32
(UTC+00:00)

CAS-4B - Pass Details

Date: 11 December 2022
Orbit: 515 x 531 km, 43.0° (Epoch: 26 January)

Event Time Altitude Azimuth Distance (km) Brightness Sun altitude
Exits shadow 06:55:20 - 257° (WSW) 2,602 ? -6.7°
Reaches altitude 10° 06:57:57 10° 238° (WSW) 1,776 ? -6.3°
Maximum altitude 07:00:40 17° 196° (SSW) 1,372 ? -6.0°
Drops below altitude 10° 07:03:24 10° 154° (SSE) 1,780 ? -5.6°
Sets 07:06:12 0° 134° (SE) 2,671 ? -5.2°
